[[{"header":{"parameterUnit":"m.s-1","parameterCategory":1,"la1":30.2991,"la2":30.254,"lo1":-89.0895,"lo2":-89.0444,"dy":0.0017,"dx":0.0017,"nx":28,"ny":28,"refTime":"2024-04-30T09:00:00:Z","depth":0,"parameterNumber":2,"parameterNumberName":"U-component_of_WINDS"},"data":[0,0,0,0,0,0,0,0,0,0,0,0,0,0,0,0,0,0,0,0,0,0,0,0,0,0,0,0,0,0,0,0,0,0,0,0,0,0,0,0,0,0,0,0,0,0,0,0,0,0,0,0,0,0,0,0,0,0,-1.4065,-1.4065,0,-1.4108,-1.4108,-1.4109,-1.4113,-1.4112,-1.4112,-1.4112,-1.4156,-1.4157,-1.4159,0,0,0,0,0,0,0,0,0,0,0,0,0,-1.3988,-1.399,-1.4065,-1.4066,-1.4066,-1.4108,-1.4108,-1.4109,-1.4113,-1.4112,-1.4112,-1.4111,-1.4155,-1.4157,-1.4159,0,0,0,0,0,0,0,0,0,0,0,0,0,-1.4025,-1.399,-1.4065,-1.4073,-1.4074,-1.4108,-1.4108,-1.4109,-1.4113,-1.4112,-1.4112,-1.4111,-1.4155,-1.4157,-1.4159,-1.4188,0,0,-1.4167,-1.4168,0,0,0,0,0,0,0,0,-1.4023,-1.4028,-1.4071,-1.4073,-1.4074,-1.4104,-1.4097,-1.4135,-1.4113,-1.4098,-1.4111,-1.4111,-1.4139,-1.4143,-1.4152,-1.419,-1.4192,-1.4167,-1.4168,-1.4169,-1.417,0,0,0,0,0,0,0,-1.4021,-1.4026,-1.4082,-1.4072,-1.4074,-1.4075,-1.408,-1.4105,-1.4122,-1.41,-1.41,-1.4105,-1.414,-1.415,-1.4153,-1.4192,-1.4167,-1.4169,-1.417,-1.4171,-1.4255,-1.4256,0,0,0,0,0,0,-1.4016,-1.4024,-1.4081,-1.4083,-1.4046,-1.4077,-1.4082,-1.4095,-1.4122,-1.4125,-1.4105,-1.4105,-1.4146,-1.4151,-1.4155,-1.419,-1.4169,-1.4172,-1.4173,-1.4254,-1.4255,-1.4256,0,0,0,0,0,0,-1.4015,-1.4021,-1.4079,-1.4054,-1.4061,-1.4079,-1.4094,-1.4096,-1.4107,-1.4126,-1.4129,-1.4113,-1.4146,-1.4152,-1.418,-1.4191,-1.4173,-1.4175,-1.4254,-1.4255,-1.4256,-1.426,0,0,0,0,0,0,-1.4012,-1.4021,-1.4031,-1.4054,-1.4063,-1.4102,-1.4095,-1.4098,-1.4111,-1.411,-1.4134,-1.4137,-1.4146,-1.4176,-1.4182,-1.4194,-1.4177,-1.4253,-1.4254,-1.4255,-1.4258,-1.4261,-1.4263,0,0,0,0,0,-1.401,-1.4031,-1.4032,-1.4039,-1.4076,-1.4103,-1.4108,-1.4117,-1.4112,-1.4123,-1.4135,-1.4136,-1.4189,-1.4179,-1.4186,-1.4199,-1.4252,-1.4254,-1.4255,-1.4257,-1.426,-1.4263,0,0,0,0,0,0,-1.4009,-1.4034,-1.4035,-1.4064,-1.4081,-1.4103,-1.4118,-1.412,-1.4139,-1.4138,-1.415,-1.4155,-1.4182,-1.4194,-1.4181,-1.4228,-1.422,-1.4223,-1.4219,-1.4222,-1.4224,-1.4221,-1.4179,0,0,0,0,0,-1.4012,-1.4032,-1.4052,-1.4076,-1.4084,-1.41,-1.4112,-1.4118,-1.4136,-1.4143,-1.4158,-1.4176,-1.4197,-1.421,-1.423,-1.426,-1.4266,-1.4273,-1.4275,-1.4277,-1.4279,-1.4296,-1.43,-1.4262,-1.4262,-1.4262,0,0,-1.4019,-1.4035,-1.4047,-1.4076,-1.409,-1.411,-1.4106,-1.4127,-1.4142,-1.4147,-1.4174,-1.4185,-1.4206,-1.4235,-1.4249,-1.4245,-1.4291,-1.4279,-1.428,-1.4282,-1.4298,-1.4302,-1.4305,-1.4263,-1.4263,-1.4263,0,0,-1.4042,-1.4056,-1.4077,-1.4091,-1.4112,-1.4122,-1.4127,-1.4149,-1.4157,-1.4185,-1.4188,-1.4207,-1.4242,-1.4257,-1.4269,-1.4298,-1.43,-1.4305,-1.4315,-1.4332,-1.4335,-1.4337,-1.4348,-1.4351,-1.4307,-1.4307,-1.4307,0,-1.4047,-1.4077,-1.4087,-1.4109,-1.4122,-1.4127,-1.4149,-1.4162,-1.4189,-1.4198,-1.4194,-1.4239,-1.4253,-1.4286,-1.4293,-1.4303,-1.4309,-1.4302,-1.4333,-1.4336,-1.4339,-1.4349,-1.4353,-1.4308,-1.4308,-1.4308,-1.4307,0,-1.4084,-1.4105,-1.4119,-1.4145,-1.416,-1.4181,-1.4195,-1.4209,-1.4213,-1.4224,-1.4252,-1.427,-1.4294,-1.4302,-1.4307,-1.4336,-1.4333,-1.4331,-1.4323,-1.4343,-1.4352,-1.4356,-1.4308,-1.4308,-1.4308,-1.4308,0,0,-1.4106,-1.4137,-1.4143,-1.4154,-1.4179,-1.4195,-1.4217,-1.424,-1.4252,-1.4271,-1.429,-1.432,-1.4318,-1.4332,-1.4339,-1.4354,-1.4375,-1.435,-1.4351,-1.4354,-1.4408,-1.4409,-1.4413,-1.4377,-1.4378,-1.4378,-1.4406,0,-1.4131,-1.417,-1.418,-1.4213,-1.4233,-1.4238,-1.4257,-1.4274,-1.4285,-1.4304,-1.4316,-1.4337,-1.4333,-1.4342,-1.4356,-1.437,-1.4386,-1.4368,-1.4395,-1.4395,-1.4388,-1.4418,-1.4419,-1.4444,-1.441,-1.441,-1.4411,0,-1.4166,-1.4185,-1.422,-1.4242,-1.425,-1.4267,-1.4289,-1.4307,-1.4327,-1.4334,-1.4349,-1.4355,-1.4379,-1.437,-1.4403,-1.439,-1.4402,-1.441,-1.4411,-1.4414,-1.4404,-1.4421,-1.4452,-1.4456,-1.4417,-1.4416,-1.4416,0,-1.4178,-1.4213,-1.4239,-1.4249,-1.4275,-1.4287,-1.4298,-1.4317,-1.4331,-1.435,-1.4359,-1.4382,-1.4394,-1.4411,-1.4423,-1.4416,-1.4455,-1.4447,-1.4461,-1.4461,-1.4468,-1.4468,-1.4502,-1.4477,-1.4477,-1.4477,-1.4476,0,-1.4205,-1.4226,-1.4245,-1.426,-1.4284,-1.4296,-1.4319,-1.4331,-1.4348,-1.4366,-1.4373,-1.439,-1.4405,-1.4424,-1.4433,-1.4459,-1.4464,-1.4471,-1.4473,-1.447,-1.4469,-1.4477,-1.4476,-1.4478,-1.4477,-1.4477,-1.4477,0,-1.4223,-1.4236,-1.4264,-1.4287,-1.4293,-1.431,-1.4329,-1.4345,-1.4356,-1.4379,-1.4385,-1.4403,-1.4426,-1.4439,-1.4469,-1.4475,-1.4503,-1.4505,-1.4496,-1.4497,-1.451,-1.4509,-1.4551,-1.4557,-1.4528,-1.4528,-1.4528,0,-1.4239,-1.4256,-1.428,-1.4293,-1.4304,-1.4324,-1.4338,-1.435,-1.4364,-1.4388,-1.4401,-1.4425,-1.4444,-1.448,-1.4496,-1.4518,-1.452,-1.4534,-1.4524,-1.452,-1.452,-1.4519,-1.4521,-1.4535,-1.4535,-1.4536,-1.4536,0,-1.4266,-1.4272,-1.4291,-1.4313,-1.4329,-1.4347,-1.4365,-1.4375,-1.439,-1.4406,-1.4429,-1.4444,-1.4474,-1.4497,-1.4521,-1.4533,-1.4537,-1.4539,-1.4543,-1.454,-1.4534,-1.4537,-1.45,-1.4538,-1.4537,-1.4537,-1.4537,-1.4537,-1.4284,-1.4299,-1.4318,-1.434,-1.4354,-1.4371,-1.4386,-1.4399,-1.4419,-1.4444,-1.445,-1.4475,-1.4495,-1.4527,-1.454,-1.456,-1.4558,-1.4564,-1.4566,-1.4567,-1.4567,-1.4531,-1.4564,-1.4564,-1.4564,-1.4564,-1.4564,0,-1.4311,-1.4324,-1.4344,-1.4368,-1.4385,-1.4387,-1.4407,-1.4421,-1.4442,-1.4461,-1.4479,-1.4507,-1.4529,-1.4547,-1.457,-1.4582,-1.4585,-1.4588,-1.4587,-1.459,-1.4568,-1.4561,-1.4586,-1.4586,-1.4586,-1.4586,-1.4586,-1.4586,-1.4327,-1.4352,-1.436,-1.4393,-1.4406,-1.443,-1.4441,-1.4456,-1.4471,-1.4501,-1.4519,-1.4531,-1.4549,-1.4573,-1.4594,-1.4599,-1.4607,-1.461,-1.4615,-1.4594,-1.4591,-1.4589,-1.4583,-1.4612,-1.4612,-1.4635,-1.4636,-1.4636]},{"header":{"parameterUnit":"m.s-1","parameterCategory":1,"la1":30.2991,"la2":30.254,"lo1":-89.0895,"lo2":-89.0444,"dy":0.0017,"dx":0.0017,"nx":28,"ny":28,"refTime":"2024-04-30T09:00:00:Z","depth":0,"parameterNumber":3,"parameterNumberName":"V-component_of_WINDS"},"data":[0,0,0,0,0,0,0,0,0,0,0,0,0,0,0,0,0,0,0,0,0,0,0,0,0,0,0,0,0,0,0,0,0,0,0,0,0,0,0,0,0,0,0,0,0,0,0,0,0,0,0,0,0,0,0,0,0,0,2.4552,2.4553,0,2.4604,2.4604,2.4605,2.4597,2.4596,2.4595,2.4594,2.4643,2.4645,2.4647,0,0,0,0,0,0,0,0,0,0,0,0,0,2.4443,2.4445,2.4552,2.4553,2.4554,2.4604,2.4604,2.4605,2.4597,2.4596,2.4595,2.4594,2.4642,2.4645,2.4647,0,0,0,0,0,0,0,0,0,0,0,0,0,2.4492,2.4446,2.4552,2.4556,2.4557,2.4604,2.4604,2.4605,2.4597,2.4596,2.4594,2.4593,2.4641,2.4644,2.4647,2.4693,0,0,2.4657,2.4659,0,0,0,0,0,0,0,0,2.449,2.4496,2.4555,2.4556,2.4557,2.4593,2.4584,2.4635,2.4597,2.4582,2.4594,2.4593,2.4627,2.4631,2.4644,2.4695,2.4698,2.4657,2.4659,2.4661,2.4662,0,0,0,0,0,0,0,2.4486,2.4494,2.4573,2.4555,2.4557,2.4553,2.4559,2.4593,2.4611,2.4583,2.4582,2.4589,2.4627,2.4641,2.4645,2.4698,2.4657,2.466,2.4662,2.4663,2.4791,2.4792,0,0,0,0,0,0,2.4482,2.4491,2.4571,2.4574,2.4519,2.4557,2.4563,2.4582,2.461,2.4614,2.459,2.4588,2.4636,2.4641,2.4646,2.4702,2.4661,2.4664,2.4665,2.4789,2.4791,2.4792,0,0,0,0,0,0,2.448,2.449,2.4569,2.4533,2.4543,2.456,2.4582,2.4584,2.4597,2.4616,2.4618,2.4601,2.4635,2.4642,2.4682,2.4704,2.4665,2.4668,2.4787,2.479,2.4792,2.4814,0,0,0,0,0,0,2.4477,2.4489,2.4507,2.4533,2.4545,2.4605,2.4583,2.4586,2.4603,2.4602,2.4627,2.4629,2.4634,2.4677,2.4685,2.4707,2.467,2.4785,2.4788,2.4791,2.4811,2.4816,2.4821,0,0,0,0,0,2.4473,2.451,2.4508,2.4518,2.4568,2.4606,2.4612,2.4619,2.4605,2.4623,2.4635,2.4629,2.47,2.4681,2.469,2.4714,2.4784,2.4788,2.4791,2.4809,2.4815,2.4821,0,0,0,0,0,0,2.4485,2.4514,2.4512,2.4559,2.458,2.4605,2.4628,2.4625,2.465,2.4647,2.4653,2.4658,2.4699,2.471,2.4689,2.4759,2.474,2.4745,2.4751,2.4757,2.4762,2.4758,2.4673,0,0,0,0,0,2.4493,2.4523,2.4546,2.4585,2.4596,2.461,2.4627,2.463,2.4652,2.4661,2.4675,2.4696,2.4723,2.4741,2.4766,2.4813,2.4818,2.4833,2.4838,2.4842,2.4846,2.4872,2.4879,2.4803,2.4803,2.4803,0,0,2.451,2.4529,2.4547,2.4588,2.4605,2.4635,2.4618,2.465,2.4671,2.4665,2.4704,2.4716,2.4739,2.4783,2.4802,2.4793,2.4868,2.4846,2.4849,2.4851,2.4876,2.4883,2.4889,2.4806,2.4805,2.4805,0,0,2.4556,2.4574,2.4609,2.4627,2.4653,2.4662,2.4671,2.4696,2.4704,2.4744,2.474,2.4765,2.4812,2.4829,2.4843,2.4896,2.4891,2.4905,2.493,2.4955,2.4961,2.4966,2.4985,2.4992,2.4909,2.4909,2.4909,0,2.4573,2.4619,2.4626,2.466,2.4677,2.4674,2.4709,2.4726,2.4759,2.477,2.476,2.4819,2.4834,2.4882,2.4895,2.4907,2.4916,2.4902,2.496,2.4965,2.497,2.4988,2.4995,2.491,2.491,2.491,2.491,0,2.4639,2.4671,2.4695,2.4729,2.475,2.4783,2.4795,2.4815,2.4816,2.4826,2.4867,2.4885,2.4915,2.4926,2.4927,2.4974,2.4968,2.4958,2.4939,2.4978,2.4996,2.5003,2.4912,2.4912,2.4912,2.4911,0,0,2.4693,2.4732,2.4741,2.4756,2.4786,2.481,2.4843,2.4874,2.4891,2.4913,2.4941,2.4981,2.4973,2.4989,2.4992,2.5014,2.5055,2.5002,2.5003,2.5011,2.5108,2.5115,2.5123,2.5052,2.5054,2.5055,2.5106,0,2.4742,2.4803,2.4811,2.4864,2.4893,2.4891,2.492,2.4941,2.4951,2.4976,2.4987,2.5016,2.5002,2.5013,2.5034,2.5046,2.5075,2.5042,2.5077,2.5079,2.5072,2.5132,2.514,2.5188,2.5113,2.5114,2.5115,0,2.4808,2.4834,2.4891,2.4917,2.4929,2.4955,2.4984,2.5009,2.5032,2.5038,2.5057,2.5058,2.5091,2.5071,2.5117,2.5094,2.5109,2.5117,2.5119,2.5122,2.5099,2.5137,2.5203,2.521,2.5126,2.5125,2.5124,0,2.4842,2.4892,2.4932,2.4945,2.4977,2.4995,2.5009,2.5031,2.5049,2.5074,2.5085,2.5113,2.5128,2.515,2.5157,2.5142,2.5203,2.5183,2.5208,2.5208,2.5221,2.522,2.529,2.523,2.523,2.523,2.523,0,2.4896,2.4931,2.4948,2.4973,2.5012,2.502,2.5057,2.507,2.509,2.5116,2.5116,2.514,2.5149,2.5175,2.518,2.5218,2.5224,2.523,2.5231,2.523,2.5229,2.5239,2.5236,2.5232,2.5232,2.5231,2.5231,0,2.4941,2.4954,2.4998,2.5025,2.5032,2.5059,2.5081,2.5105,2.5115,2.5149,2.5157,2.5173,2.5203,2.5213,2.5249,2.5253,2.5297,2.5295,2.5289,2.529,2.5314,2.5312,2.5393,2.5404,2.5338,2.5338,2.5339,0,2.4975,2.5001,2.5031,2.505,2.5065,2.5094,2.5113,2.5122,2.5142,2.5171,2.5191,2.5221,2.5246,2.5295,2.5308,2.5336,2.5335,2.5362,2.5339,2.5337,2.5336,2.5334,2.5337,2.5366,2.5366,2.5367,2.5367,0,2.5033,2.5039,2.5067,2.5097,2.512,2.5144,2.5168,2.5182,2.5195,2.5216,2.5248,2.5268,2.5306,2.5336,2.5364,2.5377,2.5374,2.5375,2.5382,2.5381,2.5377,2.538,2.5301,2.5373,2.5372,2.5372,2.5371,2.5371,2.5074,2.5098,2.5123,2.5154,2.5173,2.5195,2.5219,2.5232,2.526,2.5292,2.5295,2.533,2.5352,2.539,2.5405,2.5431,2.5423,2.5434,2.5437,2.5439,2.5441,2.5373,2.5436,2.5436,2.5436,2.5436,2.5436,0,2.5132,2.5149,2.5178,2.5211,2.5236,2.5232,2.5258,2.5278,2.5309,2.5331,2.5356,2.5392,2.5422,2.5438,2.5467,2.5485,2.5485,2.5493,2.5491,2.5494,2.5446,2.5437,2.5493,2.5493,2.5493,2.5493,2.5493,2.5493,2.5166,2.5207,2.5215,2.5265,2.528,2.5316,2.533,2.535,2.5368,2.5409,2.5434,2.5445,2.5465,2.5496,2.5522,2.5526,2.5537,2.5546,2.5549,2.5504,2.5498,2.5492,2.5484,2.5548,2.5548,2.5595,2.5595,2.5596]}]]